Voltar ao catálogo

STARLINK-31708

AtivoComunicaçõesVLEO
NORAD 59439·PAYLOAD·🇺🇸 United States

Lançado Apr 7, 2024 de Vandenberg Space Force Base

Loading…

Próximas Passagens (próximas 24 horas)

TLE

AtualizadoSource: CelesTrak SupGP

Época: Sep 14, 2026, 21:33 UTC

1 59439C 24065U   26257.89840278 -.00005092  00000+0 -15053-3 0  2576
2 59439  53.1574 120.0241 0001207  84.5933  55.2536 15.34374852    18

Acompanhe STARLINK-31708 em tempo real com AllMySat

Download on the App Store